www.pogodaiklimat.ru

Погода и климат >> Архив погоды >> Финляндия >> Пюхя


ПОГОДА в Пюхе

  • Прогноз погоды в Пюхе
  • Монитор погоды в Пюхе

АРХИВ ПОГОДЫ в Пюхе

Время (UTC), дата Ветер
(напр.,м/с)
 
Видим.   Явления Облачность Т
(С)
Тd
(С)
f
(%)
Тe
(С)
Тes
(С)
Комфортность P
(гПа)
Po
(гПа)
Тmin
(С)
Tmax
(С)
R
(мм)
R24
(мм)
S
(см)
22 17.03 В 7 н/о н/о -2.2 -2.2 100 -10 -10 1001.0 941.4
23 17.03 В 7-10
{10}
н/о н/о -2.6 -2.6 100 -11 -11 1000.8 941.1
00 18.03 В 10-12
{12}
н/о н/о -2.5 -2.5 100 -12 -12 1000.5 940.8
01 18.03 В 10 н/о н/о -2.6 -2.6 100 -12 -12 1000.1 940.4
02 18.03 В 7-11
{13}
н/о н/о -2.8 -2.8 100 -11 -11 999.7 940.0
03 18.03 В 8-13
{13}
н/о н/о -2.9 -2.9 100 -11 -11 999.4 939.7
04 18.03 В 8 н/о н/о -3.0 -3.0 100 -12 -12 998.8 939.2
05 18.03 В 10 н/о н/о -2.8 -2.8 100 -12 -12 998.5 938.9
06 18.03 В 8-13
{14}
н/о н/о -2.6 -2.6 100 -11 -11 998.1 938.5 -3.0 -1.9
07 18.03 В 10-15
{15}
н/о н/о -2.7 -2.7 100 -12 -12 997.8 938.2
08 18.03 В 10 н/о н/о -2.8 -2.8 100 -12 -12 997.4 937.9
09 18.03 В 10-14
{15}
н/о н/о -2.7 -2.7 100 -12 -12 997.3 937.8
10 18.03 В 9 н/о н/о -2.7 -2.7 100 -12 -12 997.0 937.5
11 18.03 В 9 н/о н/о -2.7 -2.7 100 -12 -12 996.8 937.3
12 18.03 В 7-10
{12}
н/о н/о -2.6 -2.6 100 -11 -11 996.8 937.3
13 18.03 В 5 н/о н/о -2.6 -2.6 100 -10 -10 996.7 937.2
14 18.03 В 4 н/о н/о -2.6 -2.6 100 -9 -9 996.6 937.1
15 18.03 СВ 2-4
{6}
н/о н/о -2.6 -2.6 100 -7 -7 996.7 937.2
16 18.03 СВ 1 н/о н/о -2.6 -2.6 100 -5 -5 997.0 937.5
17 18.03 З 1 н/о н/о -2.6 -2.6 100 -5 -5 997.5 938.0
18 18.03 З 3-4
{4}
н/о н/о -2.8 -2.8 100 -8 -8 998.1 938.5 -2.8 -2.5
19 18.03 З 5-6
{6}
н/о н/о -2.8 -2.8 100 -10 -10 998.6 939.0
20 18.03 З 6 н/о н/о -3.0 -3.0 100 -11 -11 999.0 939.3
21 18.03 З 7-8
{8}
н/о н/о -3.3 -3.3 100 -12 -12 999.8 940.0
22 18.03 З 9 н/о н/о -3.6 -3.6 100 -13 -13 1000.2 940.3
23 18.03 СЗ 9-10
{10}
н/о н/о -3.8 -3.8 100 -13 -13 1000.8 940.8
00 19.03 СЗ 7-7
{10}
н/о н/о -3.9 -4.0 99 -12 -12 1001.5 941.4
01 19.03 СЗ 8-9
{9}
н/о н/о -4.2 -4.4 99 -13 -13 1002.0 941.9
02 19.03 СЗ 8 н/о н/о -4.6 -4.7 99 -14 -14 1002.9 942.6
03 19.03 СЗ 10-11
{11}
н/о н/о -5.0 -5.2 98 -15 -15 1003.5 943.1
04 19.03 СЗ 11 н/о н/о -5.2 -5.4 98 -15 -15 1004.3 943.8
05 19.03 СЗ 10 н/о н/о -5.3 -5.5 98 -15 -15 1005.3 944.7
06 19.03 СЗ 10-11
{13}
н/о н/о -5.0 -5.2 98 -15 -15 1006.4 945.8 -5.4 -2.8
07 19.03 СЗ 12-14
{14}
н/о н/о -4.5 -4.7 99 -15 -15 1006.7 946.2
08 19.03 СЗ 13 н/о н/о -3.9 -4.0 99 -14 -14 1007.4 947.0
09 19.03 СЗ 13-16
{18}
н/о н/о -3.4 -3.5 99 -14 -14 1008.5 948.1
10 19.03 С 13 н/о н/о -3.4 -3.5 99 -14 -14 1009.3 948.9
11 19.03 СЗ 13 н/о н/о -3.6 -3.7 99 -14 -14 1009.8 949.3
12 19.03 С 13-14
{17}
н/о н/о -4.0 -4.1 99 -15 -15 1010.7 950.1
13 19.03 С 12 н/о н/о -4.5 -4.6 99 -15 -15 1011.4 950.6
14 19.03 С 12 н/о н/о -4.9 -5.1 98 -15 -15 1012.2 951.3
15 19.03 СЗ 7-9
{13}
н/о н/о -4.8 -5.0 98 -13 -13 1012.9 952.0
16 19.03 СЗ 9 н/о н/о -5.0 -5.2 98 -14 -14 1013.3 952.3
17 19.03 СЗ 10 н/о н/о -5.6 -5.9 98 -16 -16 1013.4 952.3
18 19.03 СЗ 7-8
{11}
н/о н/о -6.1 -6.4 98 -15 -15 1013.7 952.4 -6.1 -3.1
19 19.03 СЗ 6 н/о н/о -6.0 -6.3 98 -14 -14 1013.9 952.7
20 19.03 СЗ 4-5
{6}
н/о н/о -5.9 -6.3 97 -13 -13 1013.8 952.6
21 19.03 З 4-5
{6}
н/о н/о -6.1 -6.5 97 -13 -13 1013.7 952.4
22 19.03 З 3-5
{5}
н/о н/о -6.6 -7.0 97 -12 -12 1013.4 952.1
23 19.03 ЮЗ 4 н/о н/о -5.8 -6.1 98 -13 -13 1012.8 951.7
00 20.03 ЮЗ 6-7
{7}
н/о н/о -6.1 -6.4 98 -14 -14 1012.2 951.1
01 20.03 ЮЗ 7 н/о н/о -6.0 -6.3 98 -15 -15 1011.8 950.6
02 20.03 Ю 9-10
{10}
н/о н/о -6.3 -6.7 97 -16 -16 1011.4 950.2
03 20.03 Ю 10-11
{11}
н/о н/о -6.2 -6.5 98 -16 -16 1010.5 949.5
04 20.03 Ю 9 н/о н/о -6.5 -6.9 97 -16 -16 1010.1 949.0
05 20.03 Ю 10 н/о н/о -8.0 -8.5 96 -18 -18 1009.9 948.5
06 20.03 Ю 12-13
{13}
н/о н/о -7.4 -7.8 97 -18 -18 1008.9 947.6 -8.1 -5.6
07 20.03 Ю 11-12
{14}
н/о н/о -7.4 -7.8 97 -18 -18 1008.7 947.4
08 20.03 Ю 11-12
{13}
н/о н/о -6.5 -6.8 98 -17 -17 1007.9 946.9
09 20.03 Ю 10-12
{13}
н/о н/о -5.2 -5.5 98 -15 -15 1007.1 946.4
10 20.03 Ю 10-11
{14}
н/о н/о -5.1 -5.3 98 -15 -15 1007.0 946.3
11 20.03 Ю 9 н/о н/о -5.0 -5.2 98 -14 -14 1006.8 946.2
12 20.03 Ю 11-13
{13}
н/о н/о -5.0 -5.2 98 -15 -15 1006.2 945.6
13 20.03 Ю 11-12
{13}
н/о н/о -4.9 -5.1 98 -15 -15 1005.9 945.4
14 20.03 Ю 9 н/о н/о -4.7 -4.9 98 -14 -14 1005.6 945.2
15 20.03 Ю 9-10
{10}
н/о н/о -4.7 -4.9 98 -14 -14 1005.6 945.2
16 20.03 Ю 10 н/о н/о -4.7 -4.9 98 -14 -14 1005.6 945.1
17 20.03 Ю 10 н/о н/о -4.9 -5.1 98 -15 -15 1005.5 945.0
18 20.03 Ю 9-10
{12}
н/о н/о -5.0 -5.2 98 -14 -14 1005.6 945.1 -7.5 -4.6
19 20.03 Ю 9 н/о н/о -5.1 -5.3 98 -15 -15 1005.5 945.0
20 20.03 Ю 9 н/о н/о -5.1 -5.3 98 -15 -15 1005.2 944.7
21 20.03 Ю 7-9
{11}
н/о н/о -5.0 -5.3 98 -14 -14 1005.3 944.8
22 20.03 ЮЗ 8 н/о н/о -4.8 -5.0 98 -14 -14 1005.5 945.0
23 20.03 ЮЗ 7 н/о н/о -4.8 -5.0 98 -13 -13 1005.5 945.0
00 21.03 ЮЗ 6-8
{8}
н/о н/о -4.8 -5.0 98 -13 -13 1005.2 944.7
01 21.03 ЮЗ 5 н/о н/о -4.9 -5.2 98 -12 -12 1005.5 945.0
02 21.03 ЮЗ 4-6
{8}
н/о н/о -5.2 -5.5 98 -12 -12 1005.4 944.9
03 21.03 ЮЗ 6-7
{8}
н/о н/о -5.6 -5.9 98 -14 -14 1005.7 945.0
04 21.03 Ю 6 н/о н/о -5.8 -6.1 98 -14 -14 1005.2 944.5
05 21.03 Ю 8 н/о н/о -5.7 -6.0 98 -15 -15 1005.4 944.7
06 21.03 Ю 10-11
{11}
н/о н/о -5.8 -6.1 98 -16 -16 1004.5 943.8 -5.8 -4.7
07 21.03 Ю 11 н/о н/о -5.7 -6.0 98 -16 -16 1004.3 943.8
08 21.03 Ю 7-8
{13}
н/о н/о -5.2 -5.4 98 -14 -14 1004.7 944.2
09 21.03 Ю 9-10
{10}
н/о н/о -5.1 -5.3 98 -15 -15 1003.9 943.5
10 21.03 Ю 11 н/о н/о -4.9 -5.1 98 -15 -15 1003.6 943.2
11 21.03 Ю 9 н/о н/о -4.4 -4.6 99 -14 -14 1003.1 942.9
12 21.03 Ю 10-11
{11}
н/о н/о -4.1 -4.2 99 -14 -14 1002.2 942.1
13 21.03 Ю 9 н/о н/о -3.9 -4.0 99 -13 -13 1001.3 941.3
14 21.03 Ю 12-13
{14}
н/о н/о -3.8 -3.9 99 -14 -14 1000.6 940.6
15 21.03 ЮВ 10-13
{13}
н/о н/о -3.6 -3.7 99 -13 -13 1000.0 940.1
18 21.03 ЮВ 12-14
{14}
н/о н/о -2.9 -3.0 99 -13 -13 995.9 936.4 -5.8 -2.9
19 21.03 ЮВ 10-11
{14}
н/о н/о -2.8 -2.9 99 -12 -12 995.4 936.0
20 21.03 ЮВ 4-5
{11}
н/о н/о -2.7 -2.7 100 -9 -9 995.5 936.1
21 21.03 СЗ 4-4
{5}
н/о н/о -2.4 -2.4 100 -9 -9 995.9 936.5
22 21.03 СЗ 8-11
{11}
н/о н/о -2.8 -2.8 100 -11 -11 996.9 937.4
23 21.03 СЗ 14 н/о н/о -3.0 -3.0 100 -14 -14 998.7 939.1
00 22.03 СЗ 19-22
{22}
н/о н/о -3.2 -3.2 100 -15 -15 1001.3 941.4
01 22.03 СЗ 19-24
{24}
н/о н/о -3.5 -3.6 99 -15 -15 1003.4 943.4
02 22.03 СЗ 21 н/о н/о -3.8 -3.9 99 -16 -16 1006.0 945.7
03 22.03 СЗ 22-25
{25}
н/о н/о -4.3 -4.4 99 -17 -17 1008.1 947.6
04 22.03 СЗ 20 н/о н/о -4.9 -5.1 98 -17 -17 1010.0 949.2
05 22.03 СЗ 17 н/о н/о -5.6 -5.9 98 -18 -18 1012.2 951.2
06 22.03 СЗ 16-19
{21}
н/о н/о -5.7 -5.9 98 -18 -18 1014.2 953.1 -5.7 -2.3
07 22.03 СЗ 14 н/о н/о -5.3 -5.6 98 -17 -17 1015.6 954.4
08 22.03 СЗ 11-12
{16}
н/о н/о -5.0 -5.2 98 -15 -15 1016.7 955.5
09 22.03 З 12-14
{14}
н/о н/о -5.0 -5.2 98 -16 -16 1017.6 956.4
10 22.03 З 11-13
{15}
н/о н/о -4.7 -4.8 99 -15 -15 1018.3 957.1
11 22.03 З 8 н/о н/о -4.0 -4.2 99 -13 -13 1018.7 957.6
12 22.03 З 7-9
{9}
н/о н/о -3.7 -4.0 98 -12 -12 1018.8 957.8
13 22.03 ЮЗ 6-8
{8}
н/о н/о -3.1 -3.3 99 -11 -11 1018.5 957.7
14 22.03 ЮЗ 7 н/о н/о -3.2 -3.4 99 -11 -11 1018.4 957.5
15 22.03 Ю 9-11
{12}
н/о н/о -3.5 -3.7 99 -13 -13 1018.5 957.5
16 22.03 Ю 10 н/о н/о -3.8 -4.1 98 -13 -13 1017.7 956.7
17 22.03 Ю 12 н/о н/о -4.2 -4.6 97 -15 -15 1016.8 955.8
18 22.03 Ю 13-15
{15}
н/о н/о -4.5 -5.1 96 -15 -15 1015.8 954.8 -5.7 -3.0
19 22.03 Ю 14-15
{17}
н/о н/о -4.6 -6.2 89 -15 -15 1014.4 953.4
20 22.03 Ю 16-20
{20}
н/о н/о -4.5 -7.2 81 -16 -16 1013.1 952.2
21 22.03 Ю 14-17
{21}
н/о н/о -4.5 -7.0 83 -15 -15 1011.8 951.0
22 22.03 Ю 16 н/о н/о -4.4 -6.7 84 -16 -16 1010.3 949.6
23 22.03 Ю 17-20
{21}
н/о н/о -4.0 -6.6 82 -15 -15 1007.3 946.9
00 23.03 Ю 17-22
{22}
н/о н/о -3.5 -6.2 82 -15 -15 1005.3 945.2
01 23.03 Ю 20 н/о н/о -3.6 -5.3 88 -16 -16 1003.3 943.2
02 23.03 Ю 18 н/о н/о -3.6 -3.6 100 -15 -15 1001.8 941.8
03 23.03 Ю 18-22
{23}
н/о н/о -3.0 -3.1 99 -15 -15 999.7 939.9
04 23.03 Ю 18-22
{23}
н/о н/о -3.3 -3.3 100 -15 -15 997.9 938.2
05 23.03 Ю 16-20
{22}
н/о н/о -3.0 -3.0 100 -14 -14 996.7 937.2
06 23.03 Ю 17 н/о н/о -2.5 -2.5 100 -14 -14 994.6 935.2 -4.8 -2.5
07 23.03 Ю 18-21
{21}
н/о н/о -2.2 -2.2 100 -14 -14 992.6 933.4
08 23.03 Ю 16 н/о н/о -2.1 -2.1 100 -13 -13 992.0 932.9
09 23.03 Ю 15-18
{19}
н/о н/о -1.9 -1.9 100 -12 -12 990.9 932.0
10 23.03 Ю 14 н/о н/о -1.8 -1.8 100 -12 -12 990.4 931.5
11 23.03 Ю 16-18
{19}
н/о н/о -1.5 -1.5 100 -12 -12 989.1 930.3
12 23.03 ЮЗ 15-19
{20}
н/о н/о -1.1 -1.1 100 -11 -11 988.2 929.6
13 23.03 ЮЗ 14 н/о н/о -0.9 -0.9 100 -11 -11 988.7 930.1
14 23.03 ЮЗ 14-19
{19}
н/о н/о -0.8 -0.8 100 -11 -11 988.0 929.4
15 23.03 ЮЗ 14-17
{18}
н/о н/о -0.8 -0.8 100 -11 -11 987.6 929.0
16 23.03 ЮЗ 15-17
{19}
н/о н/о -1.0 -1.0 100 -11 -11 987.3 928.7
17 23.03 ЮЗ 15-18
{18}
н/о н/о -1.4 -1.4 100 -12 -12 987.0 928.4
18 23.03 ЮЗ 13-15
{19}
н/о н/о -1.8 -1.8 100 -12 -12 986.9 928.2 -2.5 -0.8
19 23.03 ЮЗ 15-18
{18}
н/о н/о -2.5 -2.5 100 -13 -13 986.3 927.5
20 23.03 ЮЗ 18-20
{20}
н/о н/о -2.8 -3.2 97 -14 -14 985.4 926.5
21 23.03 Ю 15-18
{21}
н/о н/о -3.2 -4.0 94 -14 -14 984.7 925.8
22 23.03 Ю 14-18
{18}
н/о н/о -3.7 -4.5 94 -14 -14 984.1 925.1
23 23.03 Ю 14 н/о н/о -3.9 -4.6 95 -15 -15 983.3 924.4
00 24.03 Ю 14-16
{18}
н/о н/о -3.9 -4.8 93 -15 -15 982.7 923.8
01 24.03 Ю 13 н/о н/о -3.7 -4.8 92 -14 -14 981.9 923.0
02 24.03 Ю 12-15
{18}
н/о н/о -3.8 -4.0 99 -14 -14 980.7 921.9
03 24.03 Ю 13-15
{15}
н/о н/о -3.5 -3.5 100 -14 -14 980.0 921.3
04 24.03 Ю 11-14
{16}
н/о н/о -3.1 -3.1 100 -13 -13 979.3 920.7
05 24.03 ЮЗ 12-14
{14}
н/о н/о -2.4 -2.4 100 -12 -12 978.5 920.2
06 24.03 ЮЗ 15-18
{19}
н/о н/о -1.8 -1.8 100 -12 -12 978.4 920.2 -4.0 -1.8
07 24.03 ЮЗ 17-20
{21}
н/о н/о -1.4 -1.4 100 -12 -12 978.8 920.7
08 24.03 З 15 н/о н/о -1.0 -1.0 100 -11 -11 979.8 921.7
09 24.03 З 13-17
{19}
н/о н/о -0.6 -0.6 100 -10 -10 980.9 922.8
10 24.03 З 12 н/о н/о -0.6 -0.6 100 -10 -10 981.9 923.7
11 24.03 З 9 н/о н/о -0.9 -0.9 100 -9 -9 983.5 925.2
12 24.03 З 10-13
{14}
н/о н/о -0.7 -0.7 100 -9 -9 984.7 926.4
13 24.03 СЗ 9-13
{14}
н/о н/о -0.8 -1.0 99 -9 -9 985.6 927.2
14 24.03 СЗ 9 н/о н/о -0.9 -1.3 97 -9 -9 986.9 928.3
15 24.03 З 10-13
{13}
н/о н/о 0.0 -0.7 95 -8 -8 987.7 929.3
16 24.03 З 12 н/о н/о -0.8 -1.7 94 -10 -10 988.5 929.9
17 24.03 СЗ 12 н/о н/о -1.5 -2.4 94 -11 -11 989.6 930.8
18 24.03 СЗ 12-14
{15}
н/о н/о -1.9 -2.8 94 -12 -12 990.7 931.7 -2.0 0.0
19 24.03 СЗ 14-15
{15}
н/о н/о -2.2 -3.2 93 -12 -12 991.2 932.1
20 24.03 СЗ 12-14
{16}
н/о н/о -2.0 -2.9 94 -12 -12 992.1 933.1
21 24.03 СЗ 13-15
{15}
н/о н/о -2.4 -3.1 95 -12 -12 992.6 933.4
22 24.03 СЗ 13-15
{16}
н/о н/о -2.7 -3.2 96 -13 -13 993.0 933.7

 

Местоположение метеостанции Пюхя (Финляндия): широта 67.02 долгота 27.22 высота над уровнем моря 491 м.

В архиве по умолчанию представлена погода в Пюхе за последнюю неделю. Архивные данные за месяц целиком и за предыдущие месяцы, начиная с января 2011 года, Вы можете получить, выбрав интересующий диапазон дат из раскрывающегося списка и нажав кнопку "Ввод!".


*Определитесь, кто Вы:
робот инопланетянин человек

Внимание! Время в таблицах - всемирное. Для получения местного времени необходимо прибавить поправку, которая равна 1 ч.

Смотрите также архив погоды в соседних городах и на ближайших метеорологических станциях:

Погода на Аэродроме Кемиярви (Финляндия) (33 км)
Погода в Соданкюля (Финляндия) (47 км)
Погода в Савукоски (Финляндия) (51 км)
Погода в Салле (Финляндия) (67 км)
Погода в Рованиеми Апукка (Финляндия) (72 км)
Погода в Рованиеми аэропорту (Финляндия) (80 км)
Погода в Салла Наруска (Финляндия) (86 км)
Погода в Рованиеми (Финляндия) (88 км)
Погода в Соданкила Локка (Финляндия) (92 км)
Погода в Куусамо Киутаконгас (Финляндия) (117 км)

Пояснения к столбцам:

Ветер - указаны скорость ветра в м/с - средняя за 10 мин, порывы в срок и между сроками (в фигурных скобках) и направление, откуда дует ветер: С - северный, СВ - северо-восточный, В - восточный, ЮВ - юго-восточный, Ю - южный, ЮЗ - юго-западный, З - западный, СЗ - северо-западный.
Видимость - горизонтальная дальность видимости в метрах или километрах. При видимости от 1 до 10 км при отсутствии осадков обычно наблюдается дымка, при ухудшении видимости до 1 км и менее - туман. В сухую погоду видимость может ухудшаться дымом, пылью или мглою.
Явления - указаны атмосферные явления, наблюдавшиеся в срок или в последний час перед сроком; фигурными скобками обозначены явления, наблюдавшиеся между сроками (за 1-3 часа до срока); квадратными скобками обозначены град или гололедные отложения с указанием их диаметра в мм.
Облачность - указаны через наклонную черту общая и нижняя облачность в баллах и высота нижней границы облаков в метрах; квадратными скобками обозначены формы облаков: Ci - перистые, Cs - перисто-слоистые, Cc - перисто-кучевые, Ac - высококучевые, As - высокослоистые, Sc - слоисто-кучевые, Ns - слоисто-дождевые, Cu - кучевые, Cb - кучево-дождевые. Подробнее классификацию облаков см. в Атласе облаков (PDF).
T - Температура воздуха - температура, измеренная на высоте 2 м над землей.
Td - Температура точки росы - температура, при понижении до которой содержащийся в воздухе водяной пар достигнет насыщения.
f - Относительная влажность воздуха - влажноcть воздуха, измеренная на высоте 2 м над землей.
Te - Эффективная температура - температура, которую ощущает одетый по сезону человек в тени. Характеристика душности погоды. При расчете учитывается влияние влажности воздуха и скорости ветра на теплоощущения человека.
Tes - Эффективная температура на солнце - температура, которую ощущает человек, с поправкой на солнечный нагрев. Характеристика знойности погоды. Зависит от высоты солнца над горизонтом, облачности и скорости ветра. Ночью, в пасмурную погоду, а также при ветре 12 м/с и более поправка равна нулю.
P - Атмосферное давление - приведенное к уровню моря атмосферное давление.
Po - Атмосферное давление - измеренное на уровне метеостанции атмосферное давление.
Tmin - Минимальная температура - минимум температуры воздуха на высоте 2 м над землей.
Tmax - Максимальная температура - максимум температуры воздуха на высоте 2 м над землей.
R - Количество осадков - Количество выпавших осадков за период времени, мм. При наведении курсора мыши на число - период времени, за который выпало указанное количество осадков.
R24 - Количество осадков - Количество выпавших осадков за 24 часа, мм.
S - Снежный покров - Высота снежного покрова, см. При наведении курсора мыши на число - состояние снежного покрова и степень покрытия местности в баллах.